Location: Eckardts
(50.6925°N, 10.2546°E)
Time: 13:20:34
(UTC+00:00)

Daily predictions for brighter satellites

Satellite Brightness Start Highest point End
(mag) Time Altitude Azimuth Time Altitude Azimuth Time Altitude Azimuth
Cosmos 2233 Rocket 4.1 18:12:45 10° SSE 18:18:39 53° E 18:24:37 10° NNE
Lacrosse 4 Rocket 1.9 18:15:27 10° NNW 18:19:41 47° NE 18:23:52 10° ESE
Meteor 2-4 Rocket 3.9 18:13:46 10° N 18:19:44 74° ENE 18:25:39 10° SSE
Cosmos 1943 Rocket 3.6 18:15:36 10° NNW 18:19:54 23° NE 18:24:11 10° E
Cosmos 468 Rocket 4.1 18:15:04 10° SSW 18:20:11 86° WNW 18:25:21 10° NNE
USA 59 Rocket 0.7 18:17:31 10° NNW 18:20:48 36° NE 18:25:03 10° ESE
Cosmos 2292 Rocket 3.4 18:16:24 10° N 18:20:54 83° W 18:24:24 10° S
Cosmos 372 Rocket 4.2 18:17:14 10° NNW 18:22:24 79° WSW 18:27:36 10° SSE
ADEOS 3.7 18:19:26 10° SSE 18:24:40 89° W 18:29:55 10° NNW
Cosmos 841 Rocket 3.6 18:20:17 10° S 18:25:21 56° ESE 18:30:24 10° NNE
Intercosmos 24 4.4 18:22:29 10° NNW 18:25:59 58° W 18:29:45 10° S
PAYLOAD B 4.3 18:22:33 10° SSE 18:28:04 66° ENE 18:33:39 10° N
Cosmos 1328 Rocket 4.1 18:24:46 10° N 18:28:46 36° ENE 18:32:45 10° SE
Meteor 1-4 Rocket 3.6 18:27:42 10° NNE 18:29:36 17° ENE 18:31:20 11° ESE
Aureole 1 Rocket 4.2 18:25:48 10° NW 18:30:14 43° WSW 18:33:46 10° S
USA 308 0.3 18:30:03 10° NW 18:30:53 36° NNE 18:31:35 17° E
Cosmos 1674 3.1 18:28:20 10° N 18:31:26 33° ENE 18:34:29 10° SE
Terra 3.8 18:31:21 10° E 18:33:28 13° NE 18:35:35 10° NNE
Cosmos 1743 2.8 18:30:16 10° SSE 18:33:41 45° E 18:37:08 10° NNE
CZ-4B DEB 4.3 18:28:10 10° SSE 18:33:42 88° ENE 18:39:15 10° NNW
SeaSat 1 4.3 18:31:04 10° NNE 18:35:31 35° NW 18:39:56 10° WSW
Tsikada Rocket 4.1 18:29:27 10° N 18:35:44 88° ENE 18:42:05 10° S
Cosmos 2278 Rocket 3.0 18:30:59 10° NNW 18:36:12 36° NE 18:41:07 11° ESE
Cosmos 540 Rocket 4.3 18:32:06 10° SW 18:37:07 56° WNW 18:42:09 10° NNE
NOSS 2-1 (C) 3.8 18:33:54 10° NW 18:37:19 47° NE 18:41:26 12° ESE
Meteor 1-18 Rocket 4.3 18:32:28 10° N 18:38:27 80° ENE 18:44:20 10° SSE
Iridium 4 Rocket 2.9 18:36:25 10° N 18:40:41 68° E 18:44:47 10° SSE
CZ-4B R/B 2.7 18:37:36 10° SSE 18:41:22 88° ENE 18:45:21 10° NNW
CZ-4B R/B 3.3 18:35:57 10° SSE 18:41:22 63° ENE 18:46:43 10° N
Genesis I 2.9 18:37:58 10° SW 18:41:25 86° NW 18:44:56 10° NE
Cosmos 2016 Rocket 4.2 18:38:29 10° SSW 18:44:35 74° W 18:50:43 10° N
USA 290 3.7 18:42:26 10° N 18:45:07 23° NE 18:47:00 15° E
Resurs 1-3 4.4 18:41:17 10° S 18:45:31 53° W 18:49:48 10° NNW
TSX-5 3.3 18:43:01 10° NNW 18:46:09 56° NE 18:48:42 14° SE
CARTOSAT-1 3.5 18:42:56 10° SSE 18:47:09 69° ENE 18:51:24 10° N
SPOT 5 3.8 18:45:10 12° ESE 18:48:39 27° ENE 18:52:29 10° N
SPOT 1/Viking Rocket 4.1 18:43:56 10° S 18:49:04 62° W 18:54:12 10° NNW
NOSS 8 (A) 4.3 18:47:51 10° SW 18:51:49 71° SE 18:54:57 10° NE
ATLAS 2AS CENTAUR R/B 3.8 18:46:49 10° WSW 18:53:48 49° NNW 19:00:33 10° NE
USA 306 4.1 18:52:44 10° SSE 18:54:08 14° SE 18:54:08 14° SE
ATLAS CENTAUR R/B 4.1 18:51:22 10° WNW 18:55:55 35° SW 19:02:37 10° SSE
USA 215 4.4 18:52:21 10° E 18:56:38 18° ESE 19:00:54 10° SSE
Cosmos 1151 Rocket 3.9 18:52:44 10° NNW 18:56:53 50° W 19:00:59 10° S
ARGOS Delta rocket 4.2 18:52:30 10° S 18:57:41 76° W 19:02:36 10° NNW
MOS 1-B 4.4 18:52:43 10° SSE 18:58:29 69° ENE 19:04:15 10° NNW
Okean O Rocket 1.8 18:54:28 10° SSE 18:58:47 54° ENE 19:03:08 10° N
Cosmos 2360 Rocket 2.8 18:53:14 10° SW 18:58:49 61° NW 19:04:25 10° NNE
Cosmos 1340 2.5 18:57:40 10° SSW 19:00:55 72° WNW 19:04:12 10° N
USA 186 2.0 18:59:13 10° S 19:02:23 71° WSW 19:05:38 10° NNW
Resurs 01 Rocket 1.7 18:58:55 10° SSE 19:03:21 83° WSW 19:07:49 10° NNW
GRACE-FO 1 4.5 19:03:45 10° SSE 19:07:15 61° E 19:10:46 10° N
Cosmos 2237 Rocket 3.3 19:04:46 15° SE 19:07:38 21° E 19:11:43 10° NE
GRACE-FO 2 4.5 19:04:10 10° SSE 19:07:40 62° E 19:11:11 10° N
Cosmos 2322 Rocket 3.5 19:02:23 10° SW 19:07:50 45° NW 19:13:20 10° NNE
Helios 1A 3.5 19:04:28 10° N 19:08:30 60° WNW 19:12:29 10° SSW
MOS 1 Rocket 4.3 19:06:49 18° ESE 19:09:45 34° ENE 19:14:24 10° N
Cosmos 1814 Rocket 4.2 19:06:37 10° S 19:11:41 48° ESE 19:16:44 10° NNE
ACS3 Solar Sail 1.9 19:05:27 10° SSE 19:11:46 65° ENE 19:18:07 10° N
NOSS 2-1 (E) 3.4 19:09:43 10° NW 19:13:23 83° NE 19:16:32 21° SE
BlueWalker 3 1.9 19:09:46 10° WNW 19:13:31 76° SSW 19:15:32 26° ESE
Cosmos 44 Rocket 3.8 19:08:54 10° NW 19:13:34 54° WSW 19:17:37 13° SSE
Cosmos 1515 Rocket 3.8 19:10:39 10° N 19:14:52 49° ENE 19:17:32 21° SE
Okean-O 3.0 19:12:12 20° SE 19:14:58 47° ENE 19:19:12 10° N
Cosmos 2333 Rocket 3.2 19:10:11 10° SW 19:15:48 51° NW 19:21:26 10° NNE
SL-08 R/B 4.5 19:11:05 10° N 19:15:49 49° WNW 19:20:32 10° SW
Feng Yun 1-1 Rocket 4.5 19:11:15 10° SSE 19:16:59 78° WSW 19:22:54 10° NNW
Cosmos 2219 Rocket 2.4 19:13:58 10° SW 19:19:38 74° WNW 19:25:21 10° NNE
Sich 1 4.3 19:20:26 21° E 19:20:26 21° E 19:23:37 10° NE
MetOp-B 4.4 19:17:45 20° SE 19:21:19 51° ENE 19:26:30 10° N
NOSS 2-1 (D) 3.4 19:19:45 10° NW 19:23:25 79° SW 19:26:15 23° SE
CSL-04 Rocket 3.9 19:18:13 10° S 19:23:36 71° WSW 19:28:56 10° NNW
BREEZE-M DEB (TANK) 2.0 19:22:53 10° WSW 19:24:54 49° SSE 19:25:16 44° SE
Cosmos 1842 3.0 19:21:40 10° NNW 19:25:19 84° WSW 19:27:54 18° S
SL-16 R/B 4.5 19:23:39 10° W 19:28:22 26° NW 19:33:06 10° NNE
Cosmos 1766 Rocket 3.7 19:28:27 10° SSW 19:32:47 74° W 19:37:11 10° N
USA 267 3.5 19:29:00 19° E 19:33:52 63° NNE 19:40:21 10° WNW
DELTA 2 DEB (DPAF) 4.3 19:30:30 10° NNE 19:34:30 43° E 19:36:01 30° SSE
Cosmos 1500 Rocket 4.3 19:34:22 30° E 19:34:47 31° E 19:38:38 10° NNE
SWARM A 4.4 19:34:27 36° SSE 19:35:37 59° E 19:39:06 10° N
Cosmos 1980 4.2 19:30:55 10° S 19:36:01 36° ESE 19:41:09 10° NE
IRS-1C Rocket 4.4 19:33:37 27° SE 19:36:09 48° ENE 19:41:14 10° N
Cosmos 2369 Rocket 3.9 19:32:40 10° NNW 19:36:55 21° NE 19:39:53 14° ENE
BREEZE-M R/B 4.1 19:33:31 10° W 19:38:05 76° S 19:49:01 19° ESE
Meteor 1-13 Rocket 4.3 19:33:25 10° N 19:39:21 71° ENE 19:43:00 24° SSE
Cosmos 2322 3.7 19:34:45 10° SSW 19:40:25 88° WNW 19:46:08 10° NNE
USA 32 4.3 19:36:34 10° N 19:41:39 48° ENE 19:43:41 32° SE
USA 276 1.7 19:38:54 10° W 19:41:31 69° SW 19:41:31 69° SW
Cosmos 1400 Rocket 4.4 19:38:42 10° NNW 19:42:11 32° W 19:45:35 10° SSW
Spot 2 Rocket 4.1 19:41:51 30° ESE 19:43:29 39° ENE 19:48:08 10° N
MOS 1 4.3 19:42:10 20° SSE 19:46:14 90° ENE 19:51:59 10° NNW
PSLV R/B 3.8 19:44:58 28° S 19:46:41 67° WSW 19:50:15 10° NNW
Cosmos 1707 3.1 19:43:19 10° NNW 19:46:50 56° W 19:48:44 24° SSW
Cosmos 1315 Rocket 2.9 19:43:38 10° N 19:47:32 55° ENE 19:48:17 47° ESE
Cosmos 1428 Rocket 4.5 19:42:15 10° N 19:48:21 62° ENE 19:51:28 29° SSE
CZ-4 R/B 4.0 19:46:03 10° SW 19:48:43 18° W 19:51:26 10° NW
Meteor 2-10 4.1 19:44:16 14° S 19:49:00 64° E 19:54:38 10° NNE
In-Cosmos 22 4.2 19:43:46 10° NNW 19:49:34 87° ENE 19:53:04 24° SSE
Cosmos 1733 2.8 19:49:20 58° SSE 19:49:51 71° E 19:53:18 10° NNE
Cosmos 1726 4.5 19:48:08 10° WSW 19:50:12 18° WNW 19:52:16 10° NNW
Cosmos 1570 Rocket 4.3 19:49:52 33° SE 19:51:28 42° ESE 19:56:24 10° NE
Cosmos 1408 Rocket 3.6 19:50:27 39° SSE 19:51:47 57° E 19:56:06 10° NNE
Cosmos 1536 2.7 19:55:07 24° SSW 19:57:20 79° W 20:01:11 10° N
Lacrosse 4 Rocket 3.3 19:54:03 10° NW 19:57:41 26° WSW 20:00:26 14° SSW
COSMOS 2428 2.8 19:53:48 10° SSW 19:59:31 79° WNW 20:05:17 10° NNE
Cosmos 1818 3.9 19:54:30 10° SW 19:59:57 67° NW 20:05:27 10° NE
Nadezhda 4 Rocket 4.0 19:55:01 10° N 20:01:16 82° W 20:05:35 22° S
Cosmos 2195 Rocket 4.4 19:55:09 10° N 20:01:16 69° ENE 20:03:58 35° SSE
Meteor 1-23 Rocket 4.2 19:55:44 10° N 20:01:19 64° ENE 20:03:21 39° SE
Meteor 1-4 Rocket 4.2 19:59:18 10° NW 20:01:24 21° W 20:02:22 17° WSW
Cosmos 1356 Rocket 4.3 19:57:23 10° NNW 20:01:25 48° W 20:03:51 22° SSW
Cosmos 1092 Rocket 4.1 19:57:09 10° N 20:03:25 60° ENE 20:05:52 37° SE
SL-16 R/B 4.2 20:07:18 13° ENE 20:07:18 13° ENE 20:08:11 10° ENE
Cosmos 1943 Rocket 2.0 19:58:52 10° NNW 20:04:25 89° ENE 20:06:28 41° SSE
SL-14 R/B 3.4 20:05:37 10° N 20:09:03 54° NE 20:09:03 54° NE
Cosmos 2026 Rocket 4.0 20:03:56 10° N 20:10:14 68° ENE 20:12:32 40° SSE
Terra 1.7 20:09:10 52° SE 20:10:15 73° ENE 20:14:58 10° N
USA 59 Rocket 1.1 20:06:41 10° WNW 20:10:20 37° SW 20:11:54 29° SSW
Cosmos 1464 Rocket 4.2 20:06:10 10° SSW 20:12:27 74° W 20:18:51 10° N
Cosmos 158 Rocket 3.9 20:13:21 52° ESE 20:13:21 52° ESE 20:18:00 10° NNE
Cosmos 1805 Rocket 3.4 20:14:27 63° E 20:14:27 63° E 20:18:42 10° NNE
Meteor 1-11 Rocket 3.6 20:09:43 15° SSW 20:14:27 88° W 20:20:04 10° NNE
CRYOSAT 2 4.2 20:09:46 10° N 20:14:42 81° E 20:16:10 46° S
Ariane Rocket 3.1 20:14:46 51° ESE 20:15:41 60° ENE 20:20:42 10° N
Cosmos 1125 Rocket 3.6 20:11:54 10° NNW 20:17:05 72° WSW 20:18:45 43° S
SPOT 3 Rocket 3.6 20:17:15 51° ESE 20:18:11 60° ENE 20:23:16 10° N
Cosmos 1634 Rocket 4.2 20:17:05 43° SE 20:18:28 51° E 20:24:33 10° NNE
USA 290 3.9 20:16:40 10° NW 20:19:30 28° WSW 20:19:43 27° WSW
Cosmos 2278 Rocket 2.8 20:15:01 10° NW 20:20:29 51° WSW 20:22:57 30° S
Cosmos 839 Rocket 4.4 20:12:01 10° SSW 20:20:38 66° ESE 20:27:30 10° NE
ERS-1 Rocket 3.0 20:19:35 45° S 20:21:08 80° WSW 20:26:12 10° NNW
Meteor 2-9 Rocket 4.0 20:20:43 28° SSW 20:23:37 86° WNW 20:29:04 10° NNE
BREEZE-M DEB (TANK) 4.2 20:20:09 10° W 20:23:40 76° S 20:26:06 40° ESE
Cosmos 1862 Rocket 4.4 20:20:28 10° N 20:24:00 36° NE 20:24:00 36° NE
SPOT 5 3.7 20:24:19 27° SSW 20:26:30 44° W 20:30:53 10° NNW
Cosmos 1707 Rocket 4.1 20:25:35 10° N 20:29:24 46° NE 20:29:24 46° NE
Cosmos 2034 Rocket 4.0 20:26:34 19° SSW 20:31:13 77° W 20:37:27 10° N
Celestis-02/Orion 38 4.4 20:28:22 10° NE 20:33:31 70° ESE 20:34:00 65° SSE
Cosmos 1627 Rocket 4.5 20:28:42 10° N 20:35:04 85° W 20:37:11 45° S
Okean O Rocket 3.9 20:32:04 10° SW 20:35:21 20° W 20:38:40 10° NW
Cosmos 2208 Rocket 3.9 20:35:48 69° SE 20:36:10 71° ESE 20:41:29 10° NNE
NOSS 0 Rocket 4.2 20:33:55 10° SW 20:40:09 71° NW 20:46:26 10° NNE
USA 215 3.2 20:34:09 10° ENE 20:40:38 58° SE 20:47:03 10° SW
Cosmos 1656 Rocket 3.8 20:40:12 10° NNW 20:45:48 57° NE 20:46:20 55° ENE
ATLAS 2AS CENTAUR R/B 4.5 20:40:17 10° WNW 20:46:19 29° N 20:52:11 10° NE
Meteor 1-21 4.2 20:40:55 10° NNW 20:46:41 85° WSW 20:47:41 62° S
Cosmos 2228 Rocket 3.3 20:42:27 10° N 20:46:31 66° NNE 20:46:31 66° NNE
MOS 1 Rocket 4.5 20:45:58 30° SW 20:47:44 41° W 20:52:38 10° NNW
Meteor 2-12 Rocket 4.4 20:41:55 10° NNW 20:48:05 84° W 20:49:33 55° S
Cosmos 2237 Rocket 2.3 20:46:17 15° SW 20:51:04 76° WNW 20:56:44 10° NNE
BlueWalker 3 4.2 20:48:21 10° W 20:49:46 16° WSW 20:49:46 16° WSW
Cosmos 2297 3.8 20:47:53 10° NNW 20:53:29 58° NE 20:53:48 57° ENE
Cosmos 1805 4.5 20:55:19 38° NW 20:55:19 38° NW 20:58:03 10° N
Aureole 3 Rocket 4.4 20:47:44 12° SSW 20:54:36 61° WNW 20:59:58 10° N
ARIANE 5 R/B 4.4 20:56:43 22° NE 20:56:43 22° NE 20:59:11 10° N
ACS3 Solar Sail 3.6 20:50:58 10° SW 20:56:19 27° W 21:01:41 10° NNW
Sich 1 3.8 20:57:04 44° W 20:57:30 46° WNW 21:01:40 10° N
CZ-4C R/B 4.3 20:55:36 10° N 20:58:28 44° NNW 20:58:28 44° NNW
Cosmos 2279 Rocket 3.8 21:06:50 74° SE 21:07:10 76° E 21:13:24 10° NNE
NOSS 3-3 (C) 4.3 21:09:29 47° ENE 21:09:29 47° ENE 21:14:13 10° NE
BREEZE-M DEB (TANK) 3.3 20:57:02 10° W 21:10:36 76° SSW 21:10:46 75° S
USA 267 3.2 21:16:21 65° S 21:16:54 68° SW 21:23:27 10° WNW
Cosmos 2369 Rocket 2.2 21:16:11 10° NNW 21:21:39 72° NNE 21:21:39 72° NNE
NOSS 3-3 (A) 3.9 21:25:46 68° NE 21:25:46 68° NE 21:31:30 10° NE
SL-08 ROCKET BODY 4.4 21:27:33 10° N 21:33:33 79° NE 21:33:33 79° NE
Cosmos 1607 4.5 21:44:29 49° ENE 21:44:29 49° ENE 21:49:06 10° NE
Cosmos 1943 Rocket 4.2 21:43:58 10° WNW 21:47:23 17° W 21:47:58 17° WSW
SL-16 R/B 2.7 21:49:08 54° NNE 21:49:08 54° NNE 21:53:29 10° NNE
NOSS 3-4 (A) 3.7 21:41:02 10° NW 21:47:47 82° SW 21:47:59 81° SSW
NOSS 3-4 (C) 3.7 21:41:08 10° NW 21:47:53 83° SW 21:48:05 82° SSW
Terra 4.0 21:47:52 16° W 21:48:21 16° W 21:51:20 10° NW
Cosmos 2266 Rocket 4.1 21:49:36 10° NNW 21:55:29 72° WNW 21:55:29 72° WNW
Cosmos 2344 4.4 21:57:46 10° NW 22:05:17 51° NNE 22:10:20 28° E
Meteor 1-24 Rocket 4.3 22:09:53 10° N 22:14:47 56° NNE 22:14:47 56° NNE
Cosmos 1655 Rocket 4.2 22:10:15 10° NNW 22:15:58 69° NW 22:15:58 69° NW
USA 215 3.4 22:17:15 10° ENE 22:23:46 68° NNW 22:30:16 10° WSW
Cosmos 2237 Rocket 4.5 22:31:57 10° W 22:36:06 21° NW 22:40:15 10° NNE
ATLAS 2AS CENTAUR R/B 4.0 22:32:54 10° NW 22:39:11 34° NNE 22:43:40 17° ENE
Cosmos 2369 Rocket 4.2 23:01:06 10° NW 23:03:25 18° WNW 23:03:25 18° WNW
ATLAS CENTAUR R/B 4.3 23:11:25 13° N 23:11:25 13° N 23:12:19 10° NNE
Cosmos 1980 Rocket 4.1 23:25:13 10° NNW 23:29:41 24° NE 23:31:54 19° ENE
Cosmos 1745 Rocket 4.4 23:24:10 10° N 23:29:08 59° NNW 23:29:08 59° NNW
SL-16 R/B 4.2 23:30:58 20° WNW 23:32:44 23° NW 23:37:09 10° NNE
CZ-2C R/B 4.4 23:40:58 24° ENE 23:41:16 24° ENE 23:45:20 10° N
Cosmos 2315 Rocket 4.4 23:54:43 60° NE 23:54:43 60° NE 23:59:49 10° NNE
